Hourly Data Report for October 23, 2015

All times are specified in Local Standard Time (LST). Add 1 hour to adjust for Daylight Saving Time where and when it is observed.

OTTAWA INTL A
ONTARIO

45°19'00.000" N
75°40'00.000" W
114.90 m
6106001
71628
YOW

Download Data

Hourly Data (October 2015)
Hourly Data Report for October 23, 2015
Temp Definition
°C
Dew Point Temp Definition
°C
Rel Hum Definition
%
Wind Dir Definition
10's deg

Wind Spd Definition
km/h
Visibility Definition
km
Stn Press Definition
kPa
Hmdx Definition


Wind Chill Definition


Weather Definition


TIME
00:00 Legend Double Dagger 3.3 -2.9 64 29 23 24.1 100.97     LegendNANA
01:00 Legend Double Dagger 2.6 -2.3 70 29 19 24.1 100.99     Mainly Clear
02:00 Legend Double Dagger 2.8 -2.3 69 29 22 24.1 101.04     LegendNANA
03:00 Legend Double Dagger 3.5 -1.9 68 30 26 24.1 101.07     LegendNANA
04:00 Legend Double Dagger 2.5 -1.9 73 29 21 24.1 101.12     Mainly Clear
05:00 Legend Double Dagger 1.5 -1.9 78 30 18 24.1 101.20     LegendNANA
06:00 Legend Double Dagger 1.0 -2.8 76 31 19 24.1 101.30     LegendNANA
07:00 Legend Double Dagger 1.5 -2.8 73 29 20 24.1 101.36     Mostly Cloudy
08:00 Legend Double Dagger 2.6 -2.9 67 31 23 24.1 101.47     LegendNANA
09:00 Legend Double Dagger 3.7 -3.4 60 34 34 24.1 101.52     LegendNANA
10:00 Legend Double Dagger 4.9 -2.9 57 34 23 24.1 101.53     Mostly Cloudy
11:00 Legend Double Dagger 6.3 -2.8 52 36 18 24.1 101.56     LegendNANA
12:00 Legend Double Dagger 7.0 -2.4 51 1 18 24.1 101.57     LegendNANA
13:00 Legend Double Dagger 7.8 -2.2 49 35 16 24.1 101.51     Clear
14:00 Legend Double Dagger 7.8 -2.8 47 1 9 24.1 101.49     LegendNANA
15:00 Legend Double Dagger 8.2 -1.6 50 4 11 24.1 101.43     LegendNANA
16:00 Legend Double Dagger 7.4 -2.3 50 36 2 24.1 101.43     Clear
17:00 Legend Double Dagger 4.7 -2.2 61 36 2 24.1 101.41     LegendNANA
18:00 Legend Double Dagger 4.2 -2.4 62 36 1 24.1 101.44     LegendNANA
19:00 Legend Double Dagger 2.1 -2.8 70 36 2 24.1 101.48     Clear
20:00 Legend Double Dagger 1.2 -2.9 74 9 4 24.1 101.49     LegendNANA
21:00 Legend Double Dagger 0.3 -2.3 83 12 7 24.1 101.49     LegendNANA
22:00 Legend Double Dagger -0.8 -3.3 83 11 6 24.1 101.46   -3 Mostly Cloudy
23:00 Legend Double Dagger 0.1 -3.6 76 18 5 24.1 101.48     LegendNANA

Notes on Data Quality.

Legend

  • E = Estimated
  • M = Missing
  • NA = Not Available
  • ‡ = Partner data that is not subject to review by the National Climate Archives
Date modified: